STARLINK-1690 (46358 NORAD) Tracking and Keplerian Element Data

This shows tracking and keplerian element data for the satellite.

Feedback or suggestion? Click here.




ElementValue
Catalog46358
NameSTARLINK-1690
Epoch Orbit402
Epoch Day267.83334491
Epoch Year2020
RAAN329.8181
Inclination53.0008
Eccentricity0.0001367
Argument of Perigee61.4896
Mean Anonmoly160.072
Mean Motion15.62686084
Decay Rate-0.00055007
L11 46358U 20062AK 20267.83334491 -.00055007 00000-0 -60053-3 0 9994
L22 46358 53.0008 329.8181 0001367 61.4896 160.0720 15.62686084 4025

Live tracking and technical data element details for STARLINK-1690 (NORAD 46358). STARLINK-1690 can be tracked NOW for your location showing map with azimuth and elevation plus other details from your city location.

Track the satellite on the map from your city or location and see movement details for azimuth, elevation, latitude, longitude, range, height, and movement on the map or in text.







IsCatalogInMostPopularTable: catalog: 46358, numindb: 3
Update: records affected: 1



GetName: 46358 STARLINK-1690

Hit Count: updated at: Thu, 24 Sep 2020 16:55:58 GMT